User: anonymous   Login
Location: Pensacola
(30.4142°N, 87.2155°W)
Time: 14:19:05
(UTC-05:00)
Language:

TIGRISAT - Orbit

View from above orbital plane
View from above orbital plane
View from above satellite
View from above satellite

Ground track
Ground track

The orbit data is extracted from the following two-line orbital elements,

1 40043U 14033AK  24151.41228183  .00002419  00000-0  32717-3 0  9993
2 40043  97.6944 314.9136 0055316   2.9179 357.2345 14.78846218534838
Epoch (UTC): 30 May 2024 09:53:41
Eccentricity: 0.0055316
inclination: 97.6944°
perigee height: 594 km
apogee height: 672 km
right ascension of ascending node: 314.9136°
argument of perigee: 2.9179°
revolutions per day: 14.78846218
mean anomaly at epoch: 357.2345°
orbit number at epoch: 53483

The dashed part of the orbit path shows where the satellite is in the earth's shadow,  

DLR